Theta_e
314 314 314 314 314 313 312 312 311 310 310 312 310 315 314 310 306 314 317 318 316 309 304 305 304 301 302 306 305 304 302 301 301 300 302 300 301 300 299 298 296 299 297 297 296 297 294 295 294 296 297 298 299 301 301 301 300 300 297 300 303 305 296 293 294 298 300 303 305 306 307 305 304 305 306 306 303 305 303 303 305 302 302 299 300 299 304
314 314 314 314 314 312 312 311 311 311 310 311 312 313 313 312 310 310 316 318 315 305 298 298 299 300 303 303 300 303 301 302 301 301 301 299 300 299 298 300 300 298 300 299 295 298 291 297 296 294 298 296 302 302 301 301 298 298 297 295 300 293 298 295 291 292 295 296 300 301 304 304 302 300 303 305 305 306 306 306 308 301 302 302 299 295 302
314 314 314 314 313 313 311 311 311 312 312 312 313 310 312 312 313 313 312 316 312 303 304 301 301 300 301 300 299 300 300 303 302 300 300 301 300 299 298 299 300 298 300 298 298 298 296 293 298 297 297 297 302 301 301 302 299 300 303 303 301 295 294 294 289 286 285 285 287 291 296 299 302 304 304 305 304 305 304 298 301 296 306 307 302 301 307
314 314 314 314 313 313 312 312 312 312 311 310 314 312 312 309 302 305 310 311 310 308 309 306 302 299 300 299 299 299 299 301 302 301 301 302 301 300 300 301 301 298 297 296 296 296 299 296 295 296 296 297 300 301 300 300 300 303 303 302 300 294 295 294 293 291 290 294 297 299 301 300 298 301 301 301 303 305 305 303 300 296 303 302 307 307 308
314 314 314 314 314 312 312 312 312 312 311 310 312 314 314 312 302 303 300 309 306 304 305 304 304 301 303 297 298 297 298 300 299 302 298 302 299 300 300 298 296 298 297 296 295 297 295 298 297 296 296 298 300 301 300 300 301 303 302 303 298 294 290 292 294 294 295 297 297 299 299 296 298 299 299 301 301 301 299 298 297 305 303 298 308 314 306
314 314 314 314 313 313 313 312 312 311 311 310 315 312 312 303 305 307 307 300 297 300 299 304 302 303 302 299 300 298 297 298 297 301 301 300 302 296 300 299 299 298 297 297 292 295 296 296 294 298 298 297 299 299 301 299 303 300 299 301 297 294 290 294 293 293 295 296 296 297 297 297 298 299 300 298 299 299 297 299 302 301 298 299 310 312 309
314 314 314 314 313 313 314 313 312 312 310 310 318 308 311 309 309 307 309 302 302 301 302 303 302 301 302 299 299 298 297 297 297 297 298 299 298 300 294 296 298 298 299 297 293 296 291 293 297 297 297 297 297 295 297 299 301 299 297 298 300 295 291 293 294 292 293 294 295 296 295 296 296 297 299 299 299 299 300 301 302 302 303 308 307 310 308
314 314 314 314 314 314 314 313 313 312 310 315 316 310 306 304 304 305 308 307 304 304 304 302 301 298 300 299 298 298 298 297 299 301 298 296 297 301 297 297 299 298 298 298 294 296 297 296 293 298 297 296 297 295 296 294 298 299 296 297 300 293 290 295 294 292 291 294 296 295 295 295 294 296 298 298 298 299 301 301 302 304 303 306 307 307 306
314 314 314 314 314 314 315 314 313 312 311 316 313 310 312 309 311 312 305 301 302 305 303 301 300 299 300 299 299 299 298 298 300 298 301 299 297 298 297 298 298 299 298 298 297 300 299 299 299 300 299 294 299 295 296 300 295 297 296 298 298 296 292 295 293 289 289 293 294 294 295 295 295 296 297 296 297 297 299 299 303 302 303 306 305 304 305
314 314 314 314 315 314 314 314 314 313 312 316 313 308 314 313 314 314 308 301 305 302 303 302 301 296 298 300 299 299 298 299 300 297 302 301 302 300 299 299 298 298 297 297 299 302 302 302 303 303 303 303 301 301 300 299 297 296 295 298 295 296 294 290 290 287 288 292 294 294 294 293 290 291 294 296 298 300 301 303 304 305 306 304 302 303 309
314 314 314 314 315 315 315 315 315 314 316 314 311 309 311 308 308 310 310 303 301 302 302 300 300 300 301 299 299 300 300 300 300 295 297 301 301 303 301 300 298 296 297 300 305 306 305 305 305 304 303 302 301 301 300 300 299 298 296 296 296 297 294 291 293 286 287 291 292 294 290 284 286 298 301 299 298 300 299 299 301 304 307 305 306 307 311
313 314 314 314 315 315 315 315 315 313 312 317 319 312 312 314 312 310 306 301 299 303 301 297 300 300 301 301 300 299 299 299 299 302 298 299 301 303 301 301 300 294 303 307 307 307 307 307 305 305 303 302 301 300 299 297 298 301 300 296 295 295 294 291 294 288 287 291 292 288 283 285 297 300 302 303 303 302 300 302 303 305 307 307 307 307 308
314 314 314 314 315 315 315 315 315 314 312 316 318 313 314 316 312 307 306 302 298 301 300 299 302 302 301 302 300 301 302 302 302 302 301 300 300 301 302 301 300 302 307 305 306 304 300 298 299 299 298 299 299 300 299 299 298 300 299 299 298 294 293 293 291 291 290 288 287 279 282 294 298 300 301 304 303 302 302 300 302 305 307 312 312 312 313
313 314 314 314 315 315 315 315 315 315 313 313 316 316 316 317 311 309 307 303 299 302 303 301 302 301 301 301 301 301 302 302 303 304 300 302 301 301 303 305 305 307 307 307 304 303 298 297 292 295 294 297 295 294 297 298 299 298 298 299 298 295 294 294 290 294 285 287 286 286 294 292 294 295 299 304 304 304 304 300 304 310 310 313 312 314 315
313 314 314 314 315 315 315 315 315 315 315 311 316 316 317 317 314 311 311 307 301 304 304 297 300 301 301 301 302 300 301 302 300 300 303 304 302 304 305 307 309 308 308 304 300 300 297 294 290 290 291 290 284 287 295 293 298 299 299 299 300 299 293 295 289 289 292 286 284 286 285 283 290 299 307 310 310 310 311 307 303 310 311 314 313 313 315
313 313 314 314 315 315 315 315 315 315 315 311 316 317 318 318 317 315 310 306 303 296 301 306 304 302 301 301 302 300 299 300 300 300 300 302 303 304 307 309 309 309 306 304 302 298 296 291 288 287 286 288 291 288 286 293 292 298 299 299 298 298 297 295 291 289 290 287 283 283 281 286 297 301 304 308 309 311 309 304 297 310 313 315 314 313 314
313 314 314 315 315 314 314 315 315 315 315 311 313 316 317 318 315 313 310 308 306 300 306 307 306 305 303 301 303 302 303 299 300 297 296 298 300 302 305 308 309 307 306 301 300 296 293 291 291 290 291 293 287 287 292 290 287 290 296 297 295 294 295 293 290 289 290 289 286 283 288 288 299 305 303 305 306 307 304 291 293 308 312 314 315 313 313
313 313 314 314 314 314 314 315 315 314 314 313 314 316 317 320 319 318 313 307 303 303 307 309 305 302 301 301 300 304 305 304 303 303 300 301 302 302 303 305 303 307 306 298 298 294 292 291 288 287 287 295 295 294 284 289 287 288 289 291 291 291 292 292 287 287 289 288 287 289 291 298 300 301 304 305 309 304 293 288 299 308 312 312 312 313 313
313 313 314 314 314 314 314 314 315 315 315 310 316 316 317 320 321 318 313 308 305 301 308 311 310 307 308 310 306 306 306 304 303 299 299 299 302 305 306 306 306 298 304 297 297 294 291 291 295 292 288 291 296 287 293 288 287 294 293 288 289 291 292 293 292 288 287 288 286 287 291 298 303 307 307 307 301 291 290 304 310 311 311 313 312 311 311
313 313 314 314 314 314 314 314 314 314 315 312 312 314 317 319 320 319 313 307 308 305 309 310 309 307 310 307 304 303 305 304 304 300 299 296 305 306 302 297 304 303 300 301 293 296 291 288 292 295 291 291 291 294 291 292 295 288 288 293 289 289 287 287 287 291 291 290 286 284 281 296 305 305 303 307 297 299 305 311 311 312 311 310 312 312 311
313 313 313 314 314 314 314 314 314 314 314 314 310 315 315 320 319 320 318 313 308 303 307 313 312 310 311 310 309 309 306 303 304 301 304 303 307 304 292 294 299 299 296 297 290 292 293 291 292 292 296 292 293 293 288 290 290 297 296 291 291 298 288 289 291 293 286 286 284 285 295 299 305 303 298 303 306 309 311 311 311 312 311 311 311 313 312
313 313 314 314 314 314 314 314 314 314 314 314 311 314 313 318 320 320 320 317 309 307 310 314 314 313 314 315 315 314 311 310 311 310 306 303 308 304 303 304 304 302 303 302 297 296 297 296 296 293 291 292 297 290 291 287 286 293 300 296 286 296 292 294 288 296 291 289 293 299 301 302 303 302 303 306 310 311 312 311 312 310 311 313 311 311 313
313 313 314 314 314 314 314 314 314 315 314 315 314 316 315 316 318 321 319 311 313 313 315 314 315 315 317 317 318 317 317 317 314 314 313 307 304 306 303 303 304 308 306 305 298 297 297 296 292 297 293 294 293 291 293 291 288 294 290 299 296 301 300 300 297 294 299 300 300 301 301 302 303 305 306 305 307 311 313 311 310 311 313 314 311 312 312
313 313 313 314 314 314 314 314 314 315 315 315 314 316 316 317 318 318 316 313 310 307 312 315 311 309 309 311 315 317 316 315 316 317 318 314 303 303 308 309 308 307 305 307 308 300 299 299 296 298 291 295 297 292 289 287 290 294 292 291 295 297 299 296 293 298 293 288 300 301 300 301 302 304 306 307 308 310 311 309 311 310 311 312 313 312 313
313 313 313 314 314 314 314 315 314 314 315 315 315 315 316 316 319 317 312 306 307 307 301 306 309 313 315 315 316 314 316 319 319 318 317 315 312 305 302 308 310 305 305 307 309 305 303 296 297 297 291 297 298 290 296 292 292 298 289 293 293 292 300 294 295 295 292 293 298 300 302 302 304 303 303 304 307 309 311 312 312 312 312 312 312 313 312
313 313 313 313 314 314 314 315 314 314 314 314 315 315 315 316 320 320 317 314 312 309 302 302 307 316 316 313 311 314 317 316 316 317 316 316 316 314 311 312 313 313 310 309 307 303 300 300 299 298 293 294 301 294 294 297 294 298 295 291 296 296 298 290 294 291 294 297 299 299 298 300 303 306 306 306 306 307 308 310 311 311 310 311 312 313 311
313 313 314 313 313 314 314 314 314 314 314 314 314 315 316 318 320 318 314 313 307 305 307 304 308 311 314 311 314 315 315 314 315 315 314 315 314 314 312 311 312 312 309 308 307 305 303 300 298 294 297 296 300 297 298 296 296 294 292 294 297 294 290 293 292 289 289 291 294 296 291 291 297 300 303 304 306 308 308 310 309 310 310 311 310 311 312
313 313 313 313 313 313 314 314 314 314 313 314 314 316 319 317 319 320 320 317 310 303 304 305 306 310 315 312 315 314 313 314 315 314 313 313 314 313 312 311 311 307 307 306 301 301 299 296 295 300 301 301 297 295 299 300 299 295 293 293 296 291 292 291 286 286 287 293 296 297 296 296 298 302 304 306 307 307 306 307 307 308 310 311 310 310 311
313 313 313 313 313 313 313 314 314 314 314 312 315 315 317 319 321 320 320 321 318 311 308 308 311 310 305 308 315 313 314 313 313 312 312 312 312 312 311 310 308 309 308 306 304 302 300 299 302 299 297 303 300 294 296 292 292 289 293 296 297 297 297 294 293 293 294 297 297 298 297 295 299 303 306 306 308 308 308 309 310 310 311 311 311 311 310
313 313 313 313 313 313 313 313 314 313 314 314 314 313 312 315 321 320 320 320 318 314 306 304 301 306 316 315 312 314 313 313 311 311 311 311 310 311 311 310 311 310 308 305 303 299 301 302 302 304 304 307 299 296 293 293 291 293 298 299 299 300 299 299 299 296 293 299 299 300 301 302 304 306 307 308 309 310 308 308 309 310 311 312 312 312 312
313 313 313 312 313 313 313 313 313 314 312 314 314 311 309 307 314 321 317 320 320 312 308 307 303 309 308 314 314 313 313 313 311 310 310 311 311 311 312 313 312 311 304 305 304 303 301 299 301 301 304 303 301 296 290 290 290 292 297 299 299 299 299 300 302 303 303 301 302 303 303 304 304 305 307 308 308 309 309 310 312 313 313 313 312 312 312
312 313 313 313 312 313 313 313 313 313 313 312 313 313 314 316 320 321 318 318 319 312 306 302 303 304 305 309 314 316 314 315 312 311 310 312 309 311 310 310 308 311 310 305 304 303 301 303 301 301 300 303 302 296 295 291 289 289 298 299 300 301 302 302 302 303 304 304 302 300 299 300 304 302 302 307 309 310 312 310 311 312 314 313 313 313 313
312 312 311 312 312 312 313 313 313 313 314 315 313 313 313 312 310 316 318 320 316 311 311 305 301 305 303 308 312 314 314 312 310 310 307 312 308 310 307 314 309 307 311 304 300 299 303 303 305 300 301 305 299 296 292 290 291 298 299 300 300 301 301 303 304 304 304 304 302 297 296 298 301 305 307 307 308 309 311 310 311 312 312 311 311 311 312
311 311 311 311 312 312 313 313 313 312 311 311 312 316 322 313 314 312 321 320 313 313 311 305 302 301 301 313 305 311 315 307 306 310 306 312 312 309 306 307 308 303 307 302 305 302 305 305 299 300 302 300 301 292 289 292 299 299 300 300 301 301 301 300 302 301 303 303 305 304 303 304 306 308 307 306 306 309 311 312 312 310 311 311 310 311 312
311 311 312 312 312 313 313 312 312 311 311 314 316 322 318 314 314 315 318 317 307 307 306 307 307 300 300 301 303 306 315 309 305 310 305 308 314 306 308 303 306 300 303 309 304 302 301 302 303 297 293 299 294 289 291 296 298 300 300 300 300 300 300 298 299 301 303 304 304 304 305 305 303 303 303 305 305 307 307 308 309 310 308 309 310 311 311
311 312 312 313 312 313 314 311 313 314 314 316 318 318 317 316 317 320 321 321 314 307 305 305 305 301 301 296 297 305 314 308 310 310 309 309 307 311 308 306 298 303 309 304 300 302 299 305 301 292 298 292 290 292 296 300 299 300 300 300 301 300 299 299 299 300 302 303 303 303 303 304 302 302 302 303 305 305 305 306 306 307 307 309 309 311 312
312 313 312 312 314 315 312 315 317 317 318 320 318 318 317 319 322 320 318 315 317 317 306 304 302 302 303 301 307 311 310 300 309 306 308 304 302 308 307 303 298 304 303 300 301 298 304 310 299 292 292 291 292 300 301 302 301 300 300 301 302 302 301 301 302 301 300 301 301 302 302 302 302 302 302 301 302 304 304 303 304 305 305 306 308 310 311
313 313 316 315 314 314 316 319 321 318 317 316 317 316 315 314 310 311 311 307 310 312 307 306 301 305 309 305 299 311 309 304 309 303 305 308 303 302 308 302 302 302 295 298 299 305 303 300 296 293 293 300 301 302 302 302 303 303 303 303 302 303 302 302 302 300 299 298 298 299 300 300 300 301 301 301 302 302 303 304 304 305 306 307 308 310 311
312 317 316 317 317 315 316 319 320 317 320 318 319 313 310 314 310 307 308 310 310 304 309 306 303 308 306 304 306 313 309 304 301 303 298 308 303 298 304 296 303 301 294 296 298 307 294 297 299 294 292 298 298 300 303 303 304 304 304 304 304 303 303 302 303 301 299 299 300 301 301 299 298 299 302 301 302 303 304 304 304 304 305 306 307 309 310
317 317 318 319 317 319 321 318 317 318 319 312 315 312 306 312 305 299 313 302 303 308 309 304 310 309 308 303 304 305 314 309 302 300 302 305 308 299 305 301 301 298 290 291 295 304 293 287 293 290 290 296 297 302 303 303 303 303 304 304 304 304 303 303 303 304 303 303 303 303 303 304 304 302 302 302 302 302 303 304 304 304 304 305 307 307 307
319 321 321 316 321 324 322 321 322 319 314 311 311 312 309 299 308 309 306 301 304 302 310 306 308 308 310 312 309 304 314 315 312 312 308 301 308 306 300 295 304 294 291 289 300 299 297 290 290 290 294 299 301 302 303 303 303 303 304 305 305 305 303 303 303 303 303 302 303 303 303 303 303 303 303 304 303 302 303 304 303 304 304 304 304 305 307
321 320 322 323 322 325 321 319 318 314 314 314 305 296 300 303 307 306 306 298 298 304 305 306 303 304 304 308 309 309 310 315 312 310 304 299 304 301 299 301 301 293 288 299 301 299 295 287 288 290 299 302 305 304 302 302 303 303 303 304 304 304 304 303 302 303 304 303 303 303 303 303 303 304 304 304 303 303 303 303 303 303 303 304 305 305 306
312 315 319 320 320 319 320 308 315 312 298 295 294 291 298 293 299 300 301 307 310 307 307 314 310 314 312 313 312 311 311 316 309 306 303 301 306 304 296 295 295 288 295 302 300 292 289 288 288 292 299 302 304 304 304 303 303 304 304 304 304 305 304 303 302 303 304 304 304 303 303 304 304 304 304 304 304 303 304 304 304 303 304 304 304 304 305
321 323 320 320 313 316 315 294 312 307 297 299 294 289 296 296 304 305 298 302 305 304 307 304 305 304 301 310 307 309 311 312 311 308 305 305 301 298 296 290 295 300 303 296 293 288 290 294 295 297 302 303 304 304 305 305 304 303 303 304 304 305 304 304 303 303 303 304 304 304 304 304 304 305 305 304 304 303 302 303 304 305 304 304 303 303 304
318 317 314 309 301 307 300 291 305 297 290 295 298 298 299 296 299 300 300 308 311 305 308 307 306 305 303 308 308 309 306 304 312 303 298 301 298 297 294 292 299 300 294 290 290 292 292 291 298 301 303 301 303 304 304 306 305 303 303 303 303 303 303 303 302 302 302 303 303 303 302 303 304 305 304 303 304 304 303 302 303 304 303 303 303 303 304
317 307 303 297 290 296 296 291 294 291 300 302 305 302 302 302 303 302 306 309 309 308 306 306 306 306 303 307 301 301 308 307 301 301 302 303 294 291 300 302 300 291 290 291 287 286 290 294 298 300 301 303 303 304 305 306 306 305 304 302 302 303 303 303 302 302 301 302 303 303 303 303 302 303 303 303 304 304 304 304 304 304 304 303 302 302 303
310 317 308 301 295 298 305 294 297 302 305 305 307 307 306 306 306 307 308 309 308 310 307 309 308 307 303 304 304 302 306 303 300 304 302 296 295 297 301 295 289 292 287 284 286 288 294 298 300 302 302 304 303 303 303 304 304 303 303 303 303 303 303 302 302 301 302 303 303 302 302 302 302 303 304 304 303 304 305 305 304 304 304 302 303 303 303
303 311 309 296 293 298 296 303 310 310 310 309 307 309 309 310 307 306 310 310 309 308 306 306 304 306 303 308 305 298 301 304 299 300 300 297 299 295 289 291 291 292 293 288 289 295 296 300 302 301 302 303 304 303 302 303 303 303 303 302 303 303 303 302 302 302 302 302 302 302 303 303 302 302 303 303 303 303 303 304 304 304 304 304 303 303 303
318 306 300 298 304 304 305 307 307 306 307 309 310 310 310 309 307 308 312 312 309 308 308 308 305 304 300 303 299 298 297 302 293 292 299 297 292 287 288 285 287 286 293 296 296 298 297 298 301 302 302 302 302 303 303 303 303 303 302 302 302 302 302 302 302 302 302 302 303 302 302 303 303 303 303 303 302 302 303 304 304 304 304 303 303 303 303
306 305 310 304 304 305 311 310 306 303 307 308 308 310 311 308 307 309 312 310 310 309 310 308 311 301 300 299 293 296 295 299 297 295 295 292 293 293 291 286 287 288 292 299 296 298 301 303 304 302 302 302 302 302 302 302 303 303 304 303 303 302 302 301 301 302 302 303 303 303 303 303 302 302 303 302 302 303 304 304 304 303 304 304 304 303 303
316 303 306 310 305 306 308 305 304 304 305 307 308 310 308 308 309 309 313 311 310 308 307 302 301 299 296 293 292 289 291 300 297 295 293 292 295 293 290 287 291 294 296 299 301 302 303 304 303 303 303 302 303 303 303 303 303 303 304 303 303 302 302 302 302 302 302 302 303 304 303 302 303 303 304 305 303 303 302 303 303 303 303 303 304 303 303
302 299 303 309 314 310 313 311 311 310 308 310 310 311 311 309 310 311 314 311 309 304 302 304 303 298 292 291 295 299 302 297 293 295 292 295 297 294 292 294 296 297 300 300 301 304 304 306 306 305 304 303 303 304 304 305 304 303 303 303 302 302 302 301 302 302 302 302 303 303 304 304 303 303 304 304 303 302 300 300 302 303 303 303 303 304 303
Wind_Speed
18 19 19 19 20 19 20 20 21 21 24 15 12 12 9 5 6 4 7 3 6 6 6 3 4 3 7 5 1 7 4 5 3 7 3 2 2 5 1 6 6 5 4 7 6 6 6 5 7 11 13 13 8 13 8 12 10 8 7 9 7 11 5 9 13 14 18 23 20 19 17 19 19 14 15 15 18 15 12 11 11 11 13 13 10 10 7
17 18 18 19 19 18 19 20 20 19 16 13 13 10 7 7 5 4 7 2 5 6 3 4 5 6 4 3 9 3 5 8 9 11 6 4 4 8 2 5 6 6 2 5 6 7 5 3 5 7 6 1 11 8 6 9 7 6 7 6 11 6 3 8 10 9 9 13 14 15 15 11 6 8 10 14 17 20 16 12 11 13 14 15 11 11 12
17 17 18 18 18 18 19 19 20 19 15 13 9 7 8 7 6 8 4 6 3 5 4 6 4 2 1 3 1 3 1 9 6 9 9 5 12 3 7 6 2 5 12 6 5 7 8 8 9 9 9 8 11 10 15 8 4 3 9 7 8 7 9 8 9 11 11 11 12 8 7 9 8 11 13 15 19 18 9 10 9 9 8 15 9 11 11
16 17 17 17 18 19 19 20 20 20 16 15 8 7 8 6 6 6 6 5 7 7 7 5 6 2 3 2 5 8 1 6 2 8 7 5 6 11 6 7 3 5 5 7 7 8 6 7 6 6 5 6 5 6 7 9 6 9 7 8 6 7 8 9 10 11 12 11 10 15 13 11 10 8 12 15 17 18 18 12 11 10 9 11 5 7 7
16 16 17 16 17 18 19 21 22 21 19 13 9 7 6 6 6 7 6 8 7 4 6 8 5 4 5 2 6 2 1 1 6 7 8 3 1 9 6 8 8 3 4 5 7 6 9 9 10 8 9 8 9 5 7 6 9 8 9 8 7 7 9 12 15 17 18 21 18 17 16 15 14 16 16 15 16 18 17 11 12 12 10 11 8 5 10
16 17 17 16 16 17 19 22 23 23 22 17 6 7 7 4 3 3 6 5 5 5 6 6 4 11 7 5 4 3 1 3 2 3 3 11 3 5 3 4 2 6 7 7 6 7 9 7 8 10 8 8 8 9 1 5 5 4 8 10 9 8 9 12 14 18 19 22 21 18 17 17 18 20 17 18 18 17 17 17 17 17 12 8 7 5 6
16 16 17 17 15 16 19 22 23 25 27 22 7 7 6 7 5 6 5 2 4 4 4 3 4 6 7 3 4 3 4 2 3 4 5 0 2 3 6 2 3 6 7 7 7 7 7 6 5 6 8 9 9 8 8 6 3 6 9 9 8 9 10 13 14 17 19 20 19 16 18 16 19 21 18 15 19 20 19 20 19 20 16 10 11 8 11
16 16 16 16 15 16 17 21 23 25 27 21 4 8 7 8 7 5 6 4 5 6 5 6 2 6 1 3 7 6 4 6 6 1 3 4 3 6 7 7 7 7 7 7 8 7 8 8 10 9 10 10 8 8 9 8 5 6 8 5 4 2 9 12 12 13 16 18 17 18 18 19 20 21 17 17 18 20 19 17 18 19 18 22 14 13 14
15 15 15 15 14 15 16 18 21 24 22 8 8 6 7 4 5 3 6 5 5 5 4 2 4 1 3 3 5 6 3 4 3 6 5 6 6 3 6 7 9 8 7 8 8 8 8 9 11 11 10 10 8 7 5 5 6 6 8 7 5 6 9 9 10 11 12 14 16 17 18 21 23 21 18 19 21 19 14 13 12 13 15 15 11 12 11
14 14 14 15 13 14 15 15 19 22 27 6 7 7 8 4 3 6 3 3 5 5 2 6 4 4 7 5 4 2 1 1 4 6 5 6 4 4 6 8 8 8 8 9 9 11 10 12 12 11 11 12 12 11 11 11 10 7 9 7 8 7 7 7 7 10 12 12 14 17 16 15 16 18 22 22 22 19 16 15 14 15 14 14 10 8 11
13 13 13 13 13 14 14 14 16 18 13 9 8 7 7 7 7 8 3 5 5 6 5 6 5 4 3 6 3 0 5 4 1 4 2 5 4 5 6 8 8 7 9 8 9 10 12 12 14 13 14 15 15 13 13 15 13 12 9 9 8 10 10 10 7 9 10 13 15 15 13 17 13 10 17 20 19 17 16 15 16 16 15 10 12 12 13
12 12 12 12 12 13 12 13 14 14 12 8 7 5 6 6 7 6 7 6 4 2 5 5 6 5 6 4 3 4 4 5 5 2 7 6 8 8 8 8 7 8 7 9 11 12 13 14 15 14 16 17 17 17 17 16 14 11 11 12 11 10 7 10 8 9 10 10 12 12 14 12 12 13 13 14 16 15 16 16 18 16 15 20 20 18 16
12 11 11 11 12 12 11 11 12 13 12 9 7 5 6 5 5 5 5 5 5 6 6 6 2 5 3 3 6 5 6 6 6 7 7 8 8 8 6 7 8 9 11 11 12 12 11 11 12 12 15 14 13 14 15 15 15 13 11 10 8 10 10 8 6 8 8 9 9 9 10 10 13 14 14 13 14 15 14 16 18 20 12 14 15 14 12
11 11 10 11 12 11 10 10 11 12 12 10 7 5 5 6 6 5 5 6 5 2 2 5 2 5 5 5 5 5 5 5 5 5 7 5 8 8 7 7 8 9 10 10 11 9 9 6 9 7 7 7 7 9 11 14 11 10 14 13 11 9 9 10 9 6 10 9 10 11 11 15 15 13 11 7 5 10 7 5 8 8 10 10 12 12 13
10 10 10 11 10 9 9 9 10 11 11 12 7 5 5 5 5 5 5 5 5 3 7 6 7 6 6 5 4 5 4 4 4 3 5 5 6 5 8 8 7 8 9 9 8 7 6 6 9 8 6 5 4 3 8 6 6 12 15 15 12 8 9 7 10 8 7 9 8 8 9 11 11 6 9 7 9 4 4 7 10 8 8 7 10 11 10
10 9 9 10 10 8 8 8 9 10 10 11 7 4 3 5 3 4 3 4 6 3 6 5 4 4 4 4 5 5 6 7 6 5 5 2 3 4 4 6 7 8 8 7 6 7 7 7 8 8 7 6 3 2 3 7 5 5 5 7 8 7 9 12 10 8 8 9 9 8 8 10 6 3 4 8 6 10 7 6 9 8 12 8 8 10 11
9 9 9 9 9 8 7 8 8 7 9 8 6 6 3 3 3 4 4 2 3 4 4 6 5 4 4 4 2 1 4 5 5 6 5 4 6 7 7 7 7 3 5 6 6 5 6 6 7 8 8 6 4 5 5 4 2 2 1 4 9 10 10 8 11 12 10 8 10 10 8 9 4 5 3 6 7 10 9 11 5 12 12 12 8 6 8
9 8 9 8 7 7 7 6 8 8 9 8 6 6 2 1 3 4 3 2 2 2 3 6 7 4 4 4 4 5 3 3 3 3 5 5 7 4 7 6 6 3 2 5 4 6 6 6 8 6 7 4 4 5 5 4 5 3 3 6 6 7 8 3 6 9 10 11 10 10 9 10 12 13 9 8 9 7 6 8 0 6 9 9 11 9 8
9 8 8 8 7 7 7 7 7 8 8 7 7 7 1 2 2 1 2 2 1 3 4 6 2 2 4 3 4 4 3 4 4 5 5 5 3 7 9 4 4 4 1 5 6 6 6 7 3 4 5 2 4 3 4 4 3 8 3 3 5 8 7 6 6 9 9 9 11 10 10 1 11 7 10 5 7 7 8 4 4 2 4 7 7 8 9
8 9 9 7 7 7 7 7 7 6 7 5 4 5 4 1 1 3 4 5 3 6 7 4 2 4 3 4 4 4 3 4 4 5 5 7 7 9 7 1 3 5 5 2 5 2 5 6 7 2 5 2 3 6 7 3 5 3 4 3 5 1 2 4 7 6 7 6 9 7 11 4 14 13 6 8 6 5 3 2 3 4 4 5 5 6 6
8 8 9 8 7 7 7 7 6 5 7 5 3 5 4 4 1 1 2 3 5 6 2 6 4 4 5 4 2 3 3 5 5 6 5 7 5 5 3 5 6 4 4 4 6 6 3 7 7 5 2 3 2 3 4 5 3 5 8 3 3 2 5 5 6 5 7 7 9 6 2 4 10 13 6 4 2 6 8 7 5 2 3 3 3 4 5
9 9 8 9 9 7 7 7 7 7 6 6 4 5 5 3 1 0 2 2 5 7 9 14 12 9 7 5 6 3 5 6 6 4 6 6 4 5 5 6 6 3 2 4 4 4 2 3 4 5 4 5 3 4 4 7 5 2 1 1 4 0 6 7 6 5 3 6 8 9 11 12 12 13 8 7 5 8 6 6 7 4 2 1 4 4 5
9 9 9 8 8 8 7 7 6 6 5 6 5 5 5 2 0 1 2 5 6 9 10 10 9 9 8 6 5 4 4 6 7 4 5 6 5 3 4 4 2 1 2 2 4 6 6 5 6 5 7 4 3 6 5 5 6 2 2 5 6 3 7 4 5 8 9 13 14 14 13 12 12 12 11 11 10 8 6 7 7 2 3 3 4 5 6
9 9 9 8 8 8 7 7 7 7 6 6 6 6 4 4 4 3 4 5 6 7 7 4 3 4 6 6 7 7 6 7 8 6 1 3 6 3 1 0 2 3 2 3 2 5 4 3 4 4 6 4 6 6 5 3 3 7 6 5 5 8 11 9 6 9 9 6 3 8 13 15 16 15 15 14 11 10 7 9 6 4 5 5 4 5 6
9 9 9 9 8 7 7 8 7 7 6 7 7 7 7 6 5 3 4 5 4 6 7 3 5 6 6 3 4 5 6 6 4 5 5 6 6 5 3 3 2 4 4 1 2 4 3 3 3 3 5 4 3 5 2 5 1 5 5 4 5 2 10 10 9 11 9 12 14 16 16 16 16 12 12 13 10 10 11 9 7 5 4 5 7 7 8
10 9 9 9 8 7 7 8 7 6 6 7 8 6 6 5 0 2 4 5 5 5 6 6 3 5 2 4 6 6 5 8 8 7 7 6 6 6 4 2 3 2 2 0 3 5 4 4 4 5 5 2 2 6 6 6 6 5 5 6 4 9 11 6 11 11 12 16 14 11 20 15 10 7 10 9 8 8 14 17 13 10 9 7 8 8 9
10 10 9 8 7 7 6 7 7 7 6 6 7 7 7 7 5 4 4 4 5 4 6 7 6 4 5 9 5 6 8 9 9 7 7 7 7 5 5 5 3 3 4 3 3 5 5 4 3 3 2 3 3 5 5 4 2 3 4 6 9 7 6 10 10 9 10 9 12 18 14 12 14 18 17 16 14 8 11 15 13 10 10 9 9 9 8
10 9 9 7 7 7 7 5 6 6 5 5 8 8 8 7 6 6 5 4 4 5 8 9 9 9 7 13 10 7 8 9 8 9 8 9 8 8 8 7 5 4 4 4 3 4 6 4 2 0 2 2 3 1 2 3 2 1 4 5 7 6 8 8 6 7 11 14 17 16 15 17 17 19 19 17 13 11 12 14 13 12 12 11 11 10 10
10 9 9 7 7 5 6 7 6 7 6 6 6 8 9 9 8 8 7 4 4 6 8 10 11 10 6 3 3 8 8 8 8 9 9 8 10 9 9 7 8 6 4 6 6 5 5 4 1 2 2 3 3 3 4 2 3 3 4 4 5 1 2 7 10 13 15 15 14 15 15 16 20 22 21 19 14 13 14 14 13 11 11 11 11 11 11
10 9 8 7 6 6 4 5 5 5 6 6 5 5 6 4 7 7 7 5 4 3 6 7 9 4 5 6 7 7 8 10 10 10 10 9 9 9 6 6 5 3 6 1 3 2 4 6 2 2 4 2 3 4 4 4 4 3 1 3 3 5 5 5 7 8 10 10 12 13 15 18 16 14 14 14 13 12 13 15 14 12 11 11 11 10 10
10 10 8 7 7 5 5 5 6 7 6 6 5 5 5 3 4 5 7 5 4 2 4 5 9 8 9 7 7 9 10 10 10 10 11 9 8 9 8 6 8 9 5 2 4 2 3 6 4 4 3 4 3 2 2 3 3 4 5 6 5 5 6 7 6 6 8 10 12 14 14 13 14 15 12 11 13 13 13 15 15 13 12 12 11 10 9
11 10 8 6 6 7 7 7 7 9 8 7 8 3 4 4 2 5 7 5 4 3 4 6 7 6 5 1 2 4 8 9 10 9 8 6 8 7 9 8 2 5 3 2 5 4 3 6 5 3 5 5 5 2 1 3 5 4 7 7 5 7 7 7 7 7 7 8 11 14 12 14 12 13 12 17 15 12 10 14 14 13 13 12 10 9 9
10 9 8 7 6 7 8 7 9 9 8 8 19 20 12 12 10 2 6 4 4 5 3 5 7 6 5 1 1 4 5 5 7 7 7 3 7 4 7 3 3 2 0 2 2 4 6 6 3 6 2 5 4 2 2 3 3 7 6 6 6 6 5 3 3 5 5 7 9 10 12 13 13 10 11 12 12 10 10 10 13 11 11 11 11 10 8
9 7 4 3 5 6 6 6 5 5 9 8 8 9 9 17 9 7 4 4 3 4 3 5 5 7 6 2 2 1 4 6 5 3 6 5 6 7 5 2 4 3 4 6 4 4 4 3 6 4 3 5 4 2 3 3 6 7 6 7 6 8 9 7 4 5 5 7 7 7 10 10 9 6 8 11 14 14 12 9 9 7 8 8 8 8 7
5 2 3 6 6 6 8 9 6 6 6 7 9 2 7 12 7 7 6 5 3 4 5 6 5 7 8 4 6 2 4 5 5 4 6 3 2 5 3 5 3 3 3 5 3 3 4 4 4 5 4 7 3 2 2 5 6 7 6 7 7 8 9 10 9 6 6 6 7 9 10 12 14 13 11 11 12 13 15 14 13 13 10 7 6 6 7
2 6 7 7 8 8 6 3 6 6 6 7 1 7 9 5 2 5 7 6 6 6 6 6 5 9 7 9 7 2 4 4 4 1 4 2 4 1 2 3 6 4 3 4 4 4 4 3 6 3 2 2 1 1 4 5 5 5 6 6 7 6 8 10 11 12 8 7 9 9 11 11 13 13 13 13 12 12 13 14 15 15 13 11 11 10 6
5 6 8 9 6 3 4 5 5 7 2 6 9 10 7 6 3 4 6 5 5 5 6 6 8 9 8 7 1 3 3 3 3 4 4 5 3 2 4 3 6 2 3 4 5 3 3 5 8 2 1 1 1 1 2 2 3 4 4 5 6 6 8 8 10 11 11 9 8 9 9 11 11 11 13 14 14 14 16 16 14 14 14 14 13 11 9
7 7 5 3 2 3 3 4 2 8 12 11 10 7 3 3 4 4 4 5 5 6 5 4 9 10 6 5 6 2 2 3 2 2 3 3 3 3 2 3 1 1 4 3 1 2 2 5 5 2 0 3 2 1 1 2 1 1 3 4 5 7 7 8 10 11 12 11 9 10 11 11 12 12 12 14 14 14 13 12 12 12 12 12 12 12 10
9 4 2 4 4 4 3 3 7 11 5 7 5 4 4 4 4 4 4 5 4 6 6 7 10 9 7 2 3 3 5 2 4 0 3 2 3 2 3 3 1 2 2 2 4 4 2 3 1 4 2 3 1 1 2 2 2 2 2 3 4 5 7 7 9 10 10 9 8 7 7 9 11 11 10 9 11 11 12 12 12 13 13 12 13 12 12
4 4 2 2 4 2 6 4 6 4 5 5 5 5 4 4 4 3 5 3 4 5 4 7 6 6 3 3 5 4 4 4 4 5 5 1 1 4 1 1 2 2 2 2 2 4 1 0 3 3 3 2 2 1 3 2 3 2 3 4 5 6 7 7 8 8 9 9 9 7 7 8 9 9 9 9 11 12 12 11 12 12 12 13 14 13 13
6 5 4 3 2 1 4 5 5 5 4 5 4 4 3 3 6 3 3 6 6 2 1 4 2 3 1 3 3 2 2 3 4 2 4 2 3 2 2 2 1 2 2 0 2 1 1 2 2 1 2 1 2 3 3 3 2 2 3 4 5 5 6 7 7 8 9 9 9 8 7 8 9 9 9 10 9 9 10 10 11 11 13 13 13 13 12
3 3 5 7 8 1 3 5 5 4 5 4 3 3 4 5 3 3 3 4 4 3 3 3 4 6 4 1 3 3 2 2 1 2 3 1 4 2 3 1 2 1 1 2 3 2 2 2 2 2 3 2 3 3 4 4 3 3 3 4 5 6 6 7 8 8 8 8 8 8 7 8 9 9 10 9 10 9 10 11 10 11 12 11 12 13 13
13 9 7 6 5 6 3 4 4 3 1 1 1 3 3 2 4 7 4 4 5 4 3 3 4 5 3 2 1 2 2 2 1 1 3 1 1 2 2 2 3 1 2 2 2 1 3 2 2 3 2 1 3 4 4 3 3 2 3 2 3 5 7 7 8 9 8 9 9 8 7 7 8 8 8 9 10 11 11 10 11 10 10 11 11 12 12
6 7 5 4 4 4 3 4 3 3 2 2 2 3 6 5 2 3 3 3 4 4 5 9 10 11 9 1 1 1 2 2 2 3 2 2 2 1 1 2 1 5 2 3 3 2 1 2 3 2 3 2 2 3 3 4 4 4 3 3 3 5 7 7 7 7 8 7 9 9 8 8 7 6 7 8 9 11 10 10 10 10 11 11 11 11 11
4 3 2 2 1 1 1 2 2 2 3 4 5 7 7 9 6 5 5 4 8 7 8 8 9 9 9 7 1 4 3 1 2 3 3 3 2 2 1 1 1 3 2 2 1 3 0 1 2 2 3 3 3 3 4 4 4 5 5 4 4 5 6 7 7 7 7 7 7 8 8 8 6 6 7 8 8 8 9 11 10 10 10 10 10 10 11
5 3 3 3 3 2 2 3 1 3 4 4 4 3 5 4 5 5 7 6 8 11 10 10 9 8 9 5 6 2 5 3 3 2 3 2 3 1 4 3 2 2 2 1 1 1 1 2 2 4 4 2 3 3 3 4 3 4 4 5 6 6 6 6 6 7 7 7 7 8 8 8 8 7 7 6 6 7 9 9 10 10 9 9 10 10 9
4 4 3 3 4 3 4 4 5 4 3 3 4 6 5 3 5 6 5 7 4 7 12 10 8 6 8 7 5 3 3 2 3 1 5 3 4 1 3 1 3 2 3 2 2 1 2 2 2 4 3 3 2 3 3 4 5 4 4 4 5 5 5 6 7 8 7 7 7 7 7 7 7 7 6 6 7 8 8 8 10 11 9 9 9 9 9
4 2 3 3 3 2 5 3 7 4 4 5 8 9 8 6 8 8 2 1 3 6 10 9 8 6 7 3 5 8 6 3 5 1 3 5 4 2 1 3 2 3 3 3 2 0 2 1 4 3 4 3 3 4 5 4 5 6 6 5 5 5 6 6 7 7 7 7 6 6 6 7 7 7 7 7 8 8 8 8 8 8 8 8 9 9 10
4 2 3 3 4 6 2 3 2 2 5 7 9 8 6 6 6 5 6 3 5 7 8 7 6 6 6 5 6 6 5 4 4 3 1 1 3 2 4 3 4 3 3 3 6 9 7 6 5 7 5 4 4 4 4 5 5 6 6 6 5 4 4 5 7 7 7 6 6 6 5 5 5 6 6 6 6 7 7 8 8 7 8 8 9 9 9
4 3 5 4 8 6 5 3 3 7 3 7 11 9 7 7 4 2 2 4 4 7 5 4 5 4 5 6 3 4 3 5 6 2 6 5 4 5 5 5 3 3 5 8 6 2 2 3 3 2 3 4 4 4 4 5 5 5 5 6 5 5 4 5 5 6 6 6 7 6 5 4 5 5 5 5 5 6 7 8 7 8 8 9 9 9 10
3 3 5 6 8 3 4 8 9 9 5 3 7 8 7 5 4 4 4 5 5 6 4 4 3 1 3 4 3 2 3 5 5 5 4 4 6 6 5 5 7 8 4 2 3 3 4 3 3 2 1 1 2 3 3 4 4 5 5 4 5 4 4 5 6 5 5 5 6 8 9 6 5 5 6 5 6 6 6 8 8 7 8 8 8 9 9
3 4 7 2 4 6 5 3 4 4 5 5 4 4 5 4 3 3 2 5 4 6 5 3 1 3 3 3 5 5 5 3 3 6 6 5 7 7 6 5 6 7 8 5 4 3 2 1 0 1 2 4 4 4 3 3 3 3 5 5 6 5 4 4 5 5 6 6 7 7 3 3 6 6 6 6 7 7 7 7 7 7 6 6 7 8 8
Wind_Direction
337 333 333 333 334 336 335 337 338 343 346 351 346 321 292 286 56 79 44 348 295 291 271 42 297 3 25 317 228 47 262 267 31 260 153 246 266 226 253 63 298 181 18 358 303 269 271 270 261 314 331 66 31 61 33 28 330 337 330 276 42 336 282 280 268 281 286 286 290 288 281 289 265 263 278 261 229 220 235 237 244 231 203 219 230 245 277
337 334 334 335 335 334 336 335 338 342 360 351 329 318 332 338 332 133 104 77 292 249 349 346 58 339 49 211 66 179 335 9 2 341 111 278 268 360 315 99 17 347 63 341 319 350 319 218 18 295 275 297 48 345 31 34 344 315 29 314 21 315 244 262 274 277 273 268 269 274 274 284 284 291 301 292 282 242 224 251 256 247 227 215 212 230 235
337 334 336 336 336 336 333 335 334 339 347 349 331 315 319 300 282 289 145 126 14 29 358 8 346 70 119 335 12 124 202 29 338 350 29 355 360 297 41 360 269 310 343 314 277 303 299 324 330 333 6 313 4 358 320 47 329 346 49 352 333 287 295 302 267 242 236 227 228 244 275 277 308 293 273 283 284 259 239 279 278 261 249 242 212 215 235
337 336 336 338 338 336 333 333 333 334 343 344 328 308 296 305 359 356 335 352 320 46 15 41 352 89 290 215 41 327 359 124 57 354 324 27 339 305 18 295 87 274 248 305 329 302 283 253 292 276 274 284 284 300 334 322 315 299 1 342 318 280 284 268 271 277 273 282 338 325 304 311 275 273 295 299 298 278 253 247 262 254 258 254 219 271 298
338 338 340 341 340 338 335 333 332 333 333 351 323 292 242 299 30 357 9 316 43 334 38 358 13 19 11 33 340 328 161 104 124 57 315 69 143 299 82 351 347 356 333 327 303 293 303 320 315 297 285 302 306 290 267 271 253 276 293 283 276 272 265 256 260 262 267 275 284 298 305 289 296 293 287 288 296 317 319 294 282 312 275 247 246 214 246
339 341 343 344 341 340 337 333 333 330 327 334 306 301 340 4 57 25 25 326 17 347 46 351 27 21 8 49 299 266 18 353 295 149 131 291 34 2 102 272 257 332 322 331 287 305 314 294 283 295 294 303 290 299 324 274 51 45 274 272 260 274 270 265 262 259 264 271 273 276 282 280 275 271 277 290 293 300 301 302 293 295 270 263 217 207 238
338 342 344 345 345 342 340 334 333 333 327 332 275 338 20 354 348 57 333 269 64 2 66 49 349 66 338 89 262 325 342 44 18 359 296 283 23 64 328 300 315 319 327 314 315 313 292 292 328 306 309 297 318 296 298 270 267 251 249 256 270 276 260 269 268 269 264 261 267 278 288 287 280 269 265 287 296 290 286 281 280 290 275 264 272 313 287
339 343 345 346 346 345 341 338 333 334 335 323 351 33 355 24 353 15 7 22 6 19 38 30 316 80 357 300 43 326 11 331 358 33 322 329 317 15 301 320 326 315 314 306 300 304 286 294 294 311 305 294 271 291 302 307 261 260 279 291 246 226 276 298 290 282 272 273 271 274 271 266 267 262 257 278 282 281 283 294 293 295 285 238 245 286 286
339 343 346 348 348 348 344 340 337 331 341 330 24 38 15 41 7 340 314 42 23 314 336 72 5 253 135 354 71 334 355 355 6 295 286 302 316 339 305 314 306 297 294 298 289 299 316 302 285 286 290 292 309 301 297 298 307 295 272 235 230 222 269 270 281 277 281 274 271 262 251 255 257 255 269 272 269 268 266 268 268 282 261 245 254 260 273
340 342 346 348 350 350 346 342 338 341 331 349 10 34 346 354 197 225 291 332 164 263 349 38 292 51 45 13 54 309 26 262 329 313 351 330 302 306 317 314 318 298 298 297 310 319 305 295 295 296 294 289 289 283 276 269 277 280 265 273 267 259 260 260 259 268 269 278 274 269 260 265 257 256 258 255 254 256 266 277 279 261 278 249 247 269 281
339 343 345 348 352 351 349 343 342 346 344 31 15 26 9 0 344 327 323 281 44 0 347 44 8 28 84 83 303 6 300 318 4 306 327 311 319 347 309 299 298 301 297 321 319 297 294 293 295 292 281 277 274 268 265 262 259 262 269 265 265 255 254 251 243 261 268 277 282 289 285 244 241 248 241 236 244 250 254 259 265 253 234 261 269 272 278
339 342 343 348 350 351 349 343 344 347 351 335 337 29 26 357 324 314 329 332 83 238 52 47 10 33 359 40 328 326 332 338 334 218 280 291 299 306 308 294 287 284 328 314 298 299 292 282 274 272 267 262 258 259 262 268 266 250 253 265 263 254 258 267 251 251 264 272 278 268 248 261 264 276 285 251 238 245 250 256 257 249 249 251 250 262 280
336 340 341 346 348 350 348 345 343 346 349 338 330 31 21 351 317 353 347 300 15 16 33 63 38 34 5 354 337 327 328 309 298 305 291 293 295 291 295 305 299 303 314 307 308 307 303 300 294 284 290 284 278 274 271 261 256 258 258 253 275 280 253 248 246 236 256 263 259 262 250 287 297 289 282 278 269 264 258 256 251 244 274 326 323 318 327
332 335 339 342 346 348 351 346 342 344 343 343 325 18 16 6 6 0 9 332 71 74 70 232 298 19 340 351 327 317 294 279 280 281 284 283 290 291 291 295 307 307 304 316 306 306 296 316 299 292 264 241 265 265 258 261 265 262 259 259 251 264 289 273 256 225 243 242 248 252 293 285 282 280 281 347 348 18 17 330 288 341 342 328 334 337 351
330 331 335 341 342 347 348 347 337 340 339 342 317 335 23 18 7 6 351 312 335 30 32 18 18 345 327 329 328 311 304 293 283 303 291 271 275 302 298 304 304 311 310 303 303 300 297 299 283 295 299 266 283 311 338 265 251 256 252 253 251 244 250 262 268 242 249 252 256 261 259 259 259 328 353 348 336 24 29 297 295 298 293 328 332 336 335
327 328 329 336 341 343 343 344 340 330 336 336 309 344 37 15 2 333 352 330 320 321 43 19 6 348 339 331 357 339 343 326 349 312 289 287 298 309 321 317 311 315 308 302 286 293 293 295 298 291 290 311 26 293 311 315 282 184 249 259 250 243 259 256 245 254 242 241 250 250 255 254 274 301 308 326 315 319 309 277 263 52 4 356 347 355 359
324 324 326 329 339 336 339 337 333 335 324 351 326 331 22 21 323 337 336 330 309 4 24 16 356 351 306 310 262 286 349 324 343 334 327 332 325 330 331 331 301 293 333 307 303 297 294 281 283 282 286 315 317 295 305 255 253 243 338 271 238 227 223 243 248 242 243 247 240 246 245 258 210 206 296 285 292 283 276 254 245 6 354 5 10 19 9
317 320 320 323 327 331 330 332 332 328 321 333 323 320 357 19 332 309 303 360 318 301 30 14 11 346 13 6 323 347 308 302 288 317 287 298 296 326 321 326 324 46 330 295 310 299 288 278 277 284 284 238 254 276 261 10 293 251 203 216 231 232 242 201 257 267 267 265 253 250 251 252 283 306 329 346 335 315 277 251 31 323 358 14 18 16 19
311 308 315 317 318 323 328 324 324 323 321 343 323 285 251 36 343 333 311 310 303 279 22 18 3 296 298 285 292 313 322 339 308 308 323 311 8 323 303 316 358 311 332 309 306 297 298 299 281 287 301 276 217 299 19 261 314 306 292 250 259 255 258 245 234 245 249 244 256 253 257 352 8 5 328 353 307 251 263 52 245 37 358 8 18 24 21
314 304 305 313 314 308 314 316 314 309 306 332 334 301 334 340 320 293 304 299 299 285 288 288 273 300 330 298 307 289 291 220 250 290 317 306 338 326 306 234 142 278 298 312 295 292 295 294 307 272 250 297 349 347 287 273 87 284 280 283 277 29 298 261 250 252 250 238 252 263 258 43 347 349 300 20 319 350 273 282 50 47 41 1 10 341 13
302 301 299 304 308 305 293 300 311 301 298 302 293 297 291 140 291 271 284 315 283 295 209 139 273 283 266 292 353 314 272 296 313 292 302 300 341 322 333 337 336 341 330 344 314 326 323 305 320 318 10 309 15 311 312 324 273 217 286 296 279 160 250 268 263 265 254 242 239 241 28 310 341 8 345 297 275 299 302 306 229 40 4 11 329 350 353
296 295 298 294 297 301 293 282 282 292 281 283 315 279 275 125 213 230 324 278 267 258 293 319 318 293 277 277 301 312 300 295 295 295 288 294 311 305 316 306 303 314 326 321 301 294 304 299 303 297 308 297 199 225 329 303 265 142 262 97 268 127 280 352 307 353 308 280 283 311 315 307 315 300 301 277 213 252 258 288 289 299 335 337 334 323 319
298 292 292 296 293 293 297 292 279 275 266 273 273 265 300 344 59 130 259 276 258 269 266 270 269 274 264 252 249 301 317 292 278 240 251 267 281 277 306 314 336 6 306 302 300 303 307 306 291 307 300 301 348 306 240 199 288 95 284 189 250 49 17 356 294 286 315 295 278 287 289 309 319 311 300 285 279 273 290 284 286 289 320 319 304 306 301
297 293 286 293 295 287 283 286 284 264 251 252 248 269 293 329 308 281 259 259 283 302 288 253 308 269 253 216 210 198 225 245 260 279 239 224 254 275 223 313 347 204 250 261 299 299 324 308 299 311 291 315 312 280 303 290 331 9 334 350 349 24 9 356 302 300 315 288 300 301 315 313 303 308 302 296 310 298 273 273 270 284 267 276 275 261 287
295 292 288 285 292 291 281 276 268 261 233 239 253 254 270 271 256 254 281 314 308 314 303 305 254 292 360 85 174 205 216 274 265 212 200 189 235 263 320 17 340 331 334 335 162 253 235 285 298 275 300 344 331 307 351 287 26 39 338 13 354 314 7 312 309 312 290 284 298 299 302 308 299 294 297 297 294 312 298 272 270 274 286 282 287 289 276
296 291 289 287 284 295 288 267 258 248 231 226 248 254 244 270 339 202 270 256 256 261 285 295 283 210 267 252 224 220 210 231 257 228 216 218 213 234 261 231 192 167 283 196 222 252 267 266 263 290 310 332 346 302 319 358 335 334 32 24 18 309 307 314 337 307 289 285 274 331 333 311 301 328 325 319 312 317 292 268 254 257 254 258 270 281 290
294 292 287 287 283 278 275 262 247 242 235 225 231 240 259 269 266 260 249 302 308 263 238 267 297 258 248 268 239 217 219 233 253 240 204 215 224 212 213 235 245 213 233 237 231 254 249 282 283 303 323 345 346 296 297 314 347 46 34 13 355 345 351 340 323 306 301 311 333 346 326 313 309 304 297 295 298 309 299 282 262 254 262 268 266 263 270
295 289 287 282 288 276 264 254 244 239 216 224 254 251 254 253 248 245 252 243 255 296 303 302 297 311 309 266 245 219 210 226 243 249 234 219 223 229 234 233 229 240 225 224 244 243 258 262 282 38 278 24 302 315 329 310 270 230 25 17 7 356 330 327 314 302 294 307 311 313 303 292 286 289 293 286 279 282 286 282 272 265 266 270 272 274 268
296 289 283 285 278 281 268 254 240 231 203 232 245 248 245 241 242 233 227 227 264 273 285 283 284 275 272 7 149 217 215 231 237 257 261 242 225 229 233 223 231 220 224 239 239 273 284 277 268 282 16 47 276 332 326 297 316 329 11 10 358 319 238 311 308 299 287 286 292 298 295 287 291 289 285 280 282 282 275 272 271 272 272 268 266 272 273
293 291 283 275 275 270 269 258 231 210 198 219 236 247 260 219 196 211 207 211 214 271 283 300 302 319 334 271 236 220 227 218 240 249 253 259 269 261 257 256 238 259 268 280 332 248 255 267 238 112 126 160 266 332 304 345 327 40 310 324 334 326 285 255 249 274 285 269 271 277 283 288 295 301 289 286 286 285 278 268 265 260 255 259 264 266 266
294 288 288 279 273 268 248 234 221 194 195 224 227 253 273 272 154 212 165 203 145 205 266 276 274 302 293 264 256 234 227 223 233 242 249 253 256 259 242 226 233 200 190 162 213 189 283 260 244 195 168 179 268 318 335 328 318 312 7 339 324 293 290 278 302 282 286 314 315 303 297 317 330 330 332 315 295 276 274 271 259 251 251 256 255 254 260
295 291 278 275 265 253 238 217 206 191 210 220 220 271 358 10 50 134 143 191 134 219 246 280 291 271 286 232 215 272 268 234 239 243 243 241 253 254 262 256 260 5 48 164 247 241 234 237 243 207 199 175 198 290 258 279 316 333 328 320 323 292 289 298 314 312 308 310 321 321 333 338 340 341 327 324 318 300 275 273 266 253 248 246 249 249 259
301 300 289 269 243 228 223 207 200 212 212 291 318 299 254 250 284 163 164 184 195 246 268 275 266 291 284 39 124 236 225 257 242 244 248 186 245 253 271 40 45 284 136 92 232 250 200 190 159 207 160 154 240 280 277 318 5 328 322 332 321 311 308 255 257 304 306 321 334 335 331 329 325 322 320 323 334 346 357 321 290 262 247 244 241 244 242
307 310 302 235 204 196 198 194 176 221 287 294 259 247 211 180 204 253 232 190 259 244 247 259 269 270 271 67 304 344 231 223 246 172 257 217 236 244 239 231 165 192 190 207 228 235 261 197 201 159 140 219 234 265 292 340 15 320 333 341 352 342 338 350 13 344 334 329 323 325 325 322 320 320 336 349 350 349 351 2 351 303 254 241 249 250 249
297 293 102 127 148 150 137 146 174 196 233 227 241 29 85 143 174 171 207 201 238 221 213 228 244 279 288 261 227 171 258 231 233 165 237 270 172 244 221 233 168 197 187 202 235 247 253 233 216 190 217 184 216 304 310 335 338 322 344 344 356 344 345 347 356 2 357 345 336 336 334 336 346 355 356 1 1 355 357 359 3 7 1 328 281 252 252
93 104 118 119 122 146 138 182 226 232 229 248 298 114 129 120 137 181 213 231 256 292 274 273 271 283 301 299 327 119 201 235 255 236 248 326 318 5 273 253 242 194 127 198 224 199 222 254 243 227 215 274 316 330 319 321 313 326 340 341 349 349 347 347 345 349 3 2 348 342 338 345 356 353 351 359 0 356 0 4 5 5 4 7 1 334 290
136 120 122 146 166 193 227 225 181 219 324 73 93 113 146 196 157 216 200 232 219 229 266 283 277 272 286 302 27 167 182 268 164 225 201 213 236 193 198 209 241 175 214 223 214 214 234 280 263 231 257 310 72 68 301 314 340 341 352 346 348 344 349 352 352 348 352 0 352 354 347 352 354 353 353 356 357 358 2 6 4 359 356 358 358 353 342
151 164 162 152 205 246 262 210 188 106 98 102 125 135 174 212 209 186 200 226 208 194 229 233 249 257 273 318 308 354 215 292 221 253 210 180 232 188 175 231 273 191 246 232 78 58 13 235 226 198 174 89 93 9 346 60 19 358 351 1 348 346 351 359 359 358 358 357 0 2 354 360 356 356 356 353 355 356 356 357 3 4 360 356 352 350 344
179 181 218 226 278 282 309 56 117 161 156 146 211 274 226 204 230 227 198 191 174 214 216 242 253 252 255 207 235 220 253 242 287 262 293 187 275 232 151 249 122 248 281 276 143 204 233 331 273 169 154 124 126 65 13 52 63 10 10 15 360 336 3 6 8 4 7 6 5 6 356 1 351 353 353 352 352 350 356 357 6 9 1 2 355 353 352
216 220 250 218 236 297 90 117 143 196 235 258 206 233 269 196 223 248 138 189 222 231 179 232 268 298 12 176 206 201 187 241 304 318 321 3 138 305 45 271 47 275 275 279 33 19 63 278 250 214 134 108 134 39 22 34 35 12 9 10 344 353 13 5 7 11 9 10 5 17 16 9 0 359 357 350 356 0 360 1 9 6 7 4 3 3 357
213 242 247 301 16 235 135 142 183 232 245 237 243 217 238 254 218 237 274 285 306 184 129 345 351 290 140 280 294 321 68 359 315 314 294 13 347 315 292 281 128 248 274 297 110 199 153 221 245 256 148 96 48 43 22 19 10 73 20 8 339 356 2 9 10 9 8 11 6 17 19 11 11 9 5 1 2 1 4 4 9 7 7 5 4 4 1
344 311 322 307 286 289 144 202 222 253 232 243 268 261 240 273 268 219 206 272 308 358 43 308 325 320 323 164 320 60 158 217 354 3 279 214 216 234 319 115 227 253 293 88 140 172 220 282 229 165 89 95 81 49 39 25 24 17 5 353 346 341 348 9 10 16 13 13 18 12 16 16 18 14 11 7 4 5 8 8 9 12 9 4 7 9 10
289 250 243 275 254 232 216 271 197 230 263 254 236 289 276 297 342 326 344 54 307 355 303 226 254 249 138 163 56 61 50 138 213 211 257 324 129 120 178 203 250 239 172 139 247 230 206 222 10 31 236 58 43 10 19 39 53 22 354 342 346 332 340 12 13 17 11 8 9 25 32 24 24 23 18 16 13 14 11 10 9 10 15 16 14 10 11
261 268 233 233 262 253 227 269 183 229 254 250 262 262 275 274 165 232 289 308 287 314 339 335 346 337 336 27 110 131 172 196 203 242 194 253 257 206 28 298 334 74 105 168 203 226 93 69 191 213 55 40 30 23 9 26 10 357 6 20 356 348 350 9 8 14 18 17 9 10 25 37 35 35 25 26 21 16 14 15 9 13 22 19 18 16 11
268 238 256 275 279 255 135 282 236 246 264 258 249 295 336 336 360 337 328 334 307 350 346 349 333 330 321 335 175 148 249 156 166 260 279 114 188 41 348 1 152 203 170 139 128 266 207 151 176 251 99 21 28 11 6 13 35 10 23 355 10 11 351 358 3 11 22 24 24 7 12 30 44 36 34 32 20 23 17 15 11 17 20 22 23 23 17
231 253 255 241 280 274 223 266 276 271 277 338 19 4 358 359 338 305 318 317 337 339 336 345 334 335 315 359 305 332 178 193 210 288 293 107 282 148 181 79 33 96 252 102 335 327 129 60 30 61 53 36 46 9 14 9 13 28 22 8 357 6 1 355 360 13 27 24 27 14 13 18 32 39 47 33 25 25 18 17 18 19 19 28 28 25 20
277 253 262 287 271 249 227 253 288 331 12 344 342 317 308 257 242 276 331 326 13 318 322 336 326 325 311 310 297 246 143 243 303 171 283 9 323 357 282 247 314 352 357 13 326 317 345 30 98 72 52 29 11 13 11 18 337 342 52 35 7 3 4 352 356 20 22 28 23 20 20 16 27 41 44 47 39 27 17 19 18 19 22 32 32 28 28
263 269 268 267 259 256 263 343 17 357 348 328 296 285 278 285 287 281 265 324 357 329 313 322 317 328 305 288 269 321 326 330 335 337 348 340 315 323 350 289 357 13 24 347 331 57 135 181 50 44 41 359 12 1 359 359 355 344 346 35 30 6 359 354 4 14 6 16 39 37 16 24 25 30 39 48 46 35 24 22 20 18 19 23 29 32 30
281 295 293 268 260 273 301 99 323 355 282 266 274 277 294 300 302 354 356 356 351 325 307 310 327 321 300 318 324 343 323 14 326 9 348 187 289 350 335 339 342 335 357 334 16 44 64 66 12 346 6 2 352 343 344 340 352 331 337 345 15 1 359 356 5 360 354 15 40 24 17 26 40 40 41 39 49 53 39 26 22 20 17 24 30 32 34
249 247 235 259 267 287 18 19 360 290 334 18 313 307 352 327 338 322 247 308 286 275 284 9 334 319 312 306 320 321 314 354 2 344 310 323 349 351 337 337 353 320 2 45 69 128 60 47 95 87 22 358 343 341 330 343 335 335 334 344 342 346 8 346 354 355 356 22 51 36 34 25 32 48 45 42 43 45 55 44 28 23 21 18 27 41 39
230 250 267 265 293 321 298 320 335 321 324 303 308 342 3 328 341 7 28 312 315 302 306 4 42 23 279 296 319 332 7 11 300 309 351 352 336 346 3 359 345 11 50 159 95 43 53 62 34 23 299 263 281 305 305 304 328 323 329 337 316 353 359 341 349 352 352 15 38 40 25 355 45 44 49 35 44 39 46 58 45 28 26 18 18 32 49
260 251 262 298 31 350 349 271 267 313 337 353 300 286 310 16 14 318 347 292 313 318 4 41 291 260 281 343 357 335 359 354 319 35 353 11 358 352 4 333 355 11 318 28 20 49 358 47 244 342 303 250 239 250 279 301 304 338 342 345 332 336 347 351 351 340 4 7 36 49 76 338 38 48 50 52 42 39 45 45 48 41 26 22 19 17 33